Location: Tamazert
(32.6352°N, 5.2072°W)
Time: 05:22:56
(UTC+00:00)

RUBIN 8/PSLV - Pass Details

Date: 22 May 2022
Orbit: 609 x 648 km, 98.0° (Epoch: 24 June)

Event Time Altitude Azimuth Distance (km) Brightness Sun altitude
Rises 03:48:59 0° 10° (N) 2,873 8.8 -16.8°
Reaches altitude 10° 03:51:09 10° 9° (N) 1,966 7.8 -16.4°
Maximum altitude 03:55:25 77° 284° (WNW) 629 4.4 -15.7°
Enters shadow 03:58:14 21° 200° (SSW) 1,383 5.9 -15.2°
